Orlando Golden Classic - TOSS9 45 Miles

Station: DE LEON SPRINGS Nort - T Race

Distance: 44.02 Miles    

Release: 23-Sep-2022 07:55

Weather Release:    Arrival:

Wind at Release:     Wind at Arrival:

Temp at Release: °    Temp at Arrival: °

Lofts: 263

Birds: 1131

Clocked: 1111

Good Luck to Everyone!
Drops Pos Breeder Pigeon Name Color Sex Ent Arrival Speed To Win Elg Pd
1 Ignacio Family Loft - FL 3531-AU22-HRPC RED C 1 08:40:36.14 1698.931 00:00:00 Yes
2 Lian Loft Vladimir 59 Perez - FL 2266-AU22-LIAN BB H 1 08:40:37.48 1698.099 00:00:01 Yes
3 Kelly Ward - IN 0075-AU22-FAMI BCWF H 1 08:40:39.29 1696.977 00:00:03 Yes
4 Ganus Family Loft - IN 0706-AU22-GFL SPL C 1 08:40:40.45 1696.259 00:00:04 Yes
5 Rodriguez Loft - TX 22638-AU22-WIN 18479 (#1)-003 (VH) BB H 1 08:40:40.46 1696.252 00:00:04 Yes
6 Los 4 Loft - FL 4121-AU22-AA BB H 1 08:40:40.55 1696.197 00:00:04 Yes
7 Cr7 Loft - CA 36001-AU22-ARPU El Expresso BC C 1 08:40:41.14 1695.832 00:00:05 Yes
8 Anunaki - FL 2724-AU22-GHC BC H 1 08:40:41.61 1695.541 00:00:05 Yes
9 Trooper Family Loft - FL 13901-AU22-JEDD Sunlight BB C 1 08:40:42.02 1695.287 00:00:06 Yes
10 Tamayos Loft - FL 5407-AU22-ARPU BC C 1 08:40:42.48 1695.003 00:00:06 Yes
11 Santico Lof - FL 1706-AU22-HRPC BC H 1 08:40:42.96 1694.706 00:00:07 Yes
12 Evolution Roly Loft - FL 7695-AU22-AA BBWF C 1 08:40:43.57 1694.330 00:00:07 Yes
13 VICMAC LOFT - FL 0809-AU22-JAX Margarita BBWF H 1 08:40:43.59 1694.317 00:00:07 Yes
14 Fong Loft - FL 38800-AU22-ARPU BB H 1 08:40:43.60 1694.311 00:00:07 Yes
15 A P C Loft - TX 22020-AU22-APC BBWF H 1 08:40:44.08 1694.015 00:00:08 Yes
16 Pinguin Loft - FL 0421-AU22-FEC RED H 1 08:40:44.16 1693.965 00:00:08 Yes
17 Baldwin & Tillson - NC 2052-AU22-TENT B/T 8851 BBWF C 1 08:40:44.58 1693.706 00:00:08 Yes
18 OscarSandor - FL 0013-AU22-OSCA BB C 1 08:40:44.68 1693.644 00:00:09 Yes
19 Limonar Loft - FL 0061-AU22-LIMO DC H 1 08:40:44.69 1693.638 00:00:09 Yes
20 Ganus Family Loft - IN 0747-AU22-GFL BB C 2 08:40:44.72 1693.620 00:00:09 Yes
21 Fl Zhang Loft - FL 37474-AU22-ARPU SPL H 1 08:40:45.13 1693.367 00:00:09 Yes
22 Alferez loft - Gerardo temores - 0121-AU22-SCIA BBWF H 1 08:40:45.63 1693.058 00:00:09 Yes
23 Pagalday Loft - FL 0328-AU22-PAGA BB C 1 08:40:46.65 1692.430 00:00:11 Yes
24 Yasiel & Noel Loft - FL 1795-IF22-FOYS BB H 1 08:40:46.75 1692.368 00:00:11 Yes
25 Matsuzaka and Bertico - FL 35722-AU22-ARPU BB H 1 08:40:47.17 1692.109 00:00:11 Yes
26 Fl Zhang Loft - FL 37471-AU22-ARPU BB C 2 08:40:47.25 1692.060 00:00:11 Yes
27 99 Problems - FL 0025-AU22-ARRO BC C 1 08:40:47.27 1692.048 00:00:11 Yes
28 Erp-Duviel Team - GA 2705-AU22-NEA BC C 1 08:40:48.56 1691.254 00:00:12 Yes
29 Candela D pigeon loft - GA 0244-AU22-NEA Ruth 1 BC H 1 08:40:49.02 1690.971 00:00:13 Yes
30 Tamayos Loft - FL 0011-AU22-YADY BB C 2 08:40:49.68 1690.565 00:00:14 Yes
31 Underground Loft - FL 24895-AU22-FOYS BBWF H 1 08:40:49.69 1690.559 00:00:14 Yes
32 Sigua Pigeons - FL 0405-AU22-SIGU Candy Crush BC H 1 08:40:49.77 1690.509 00:00:14 Yes
33 Yard Loft - FL 0339-AU22-YARD BC H 1 08:40:50.24 1690.220 00:00:14 Yes
34 Ganus Family Loft - IN 0371-AU22-GFL BB H 3 08:40:50.33 1690.165 00:00:14 Yes
35 Vracic Family Loft - MN 0126-AU22-VFL BB H 1 08:40:50.70 1689.938 00:00:15 Yes
36 Y Mtn Loft - TN 26412-AU22-YMTN BB C 1 08:40:51.19 1689.637 00:00:15 Yes
37 Erick & Ore - FL 2805-AU22-AA SPL H 1 08:40:51.65 1689.354 00:00:16 Yes
38 Juan Ganga - FL 1005-AU22-ALON BBWF H 1 08:40:51.75 1689.293 00:00:16 Yes
39 Johnny Eason - NC 2216-AU22-KY SIL C 1 08:40:51.76 1689.287 00:00:16 Yes
40 Aztec Loft - DE 0337-AU22-AZTE RED C 1 08:40:51.78 1689.275 00:00:16 Yes
41 Ledet-Gutrz - LA 22063-AU22-LEGU BC C 1 08:40:52.21 1689.011 00:00:16 Yes
42 Barbaro RG Loft - FL 1301-AU22-JAX BC H 1 08:40:52.22 1689.005 00:00:16 Yes
43 Rivera \Holguin Loft - FL 0203-AU22-RIVE BB H 1 08:40:52.23 1688.998 00:00:16 Yes
44 Andrew E. Skwiat - IN 0143-AU22-ANDY BCWF C 1 08:40:52.48 1688.845 00:00:16 Yes
45 Alas de Oro - NV 0534-IF22-E BC H 1 08:40:52.90 1688.587 00:00:17 Yes
46 Baldwin & Tillson - NC 2093-AU22-TENT B/T 8851 BBSP C 2 08:40:52.91 1688.581 00:00:17 Yes
47 Borrego Family Loft - FL 23350-AU22-ARPU Fiallo DC H 1 08:40:52.92 1688.575 00:00:17 Yes
48 Matsuzaka and Bertico - FL 35702-AU22-ARPU BC C 2 08:40:53.02 1688.514 00:00:17 Yes
49 Hanely Loft - FL 1228-AU22-THP BBWF H 1 08:40:53.53 1688.201 00:00:17 Yes
50 R15 - FL 46075-AU22-ARPU BC H 1 08:40:53.54 1688.195 00:00:17 Yes
51 Double D Loft - FL 0010-AU22-FEC DCWF H 1 08:40:53.97 1687.931 00:00:18 Yes
52 Redmon Loft - FL 39307-AU22-ARPU BB H 1 08:40:53.98 1687.925 00:00:18 Yes
53 JAZZY DRAGAN - FL 0206-AU22-JAZZ Endless BB H 1 08:40:54.39 1687.674 00:00:18 Yes
54 Remedio Brand - FL 6601-AU22-AA BB H 1 08:40:54.40 1687.668 00:00:18 Yes
55 SpeedS RacerS EmpireS - FL 8900-AU22-AA Super-DVRT BC H 1 08:40:54.89 1687.368 00:00:19 Yes
56 Rivera \Holguin Loft - FL 0223-AU22-RIVE BC H 2 08:40:54.90 1687.361 00:00:19 Yes
57 Las Tunas Lofts - FL 0019-AU22-TUNA BB C 1 08:40:55.56 1686.957 00:00:19 Yes
58 Borrego Family Loft - FL 0033-AU22-BORR BC H 2 08:40:56.02 1686.676 00:00:20 Yes
59 Borrego Family Loft - FL 23338-AU22-ARPU Fiallo BC H 3 08:40:56.09 1686.633 00:00:20 Yes
60 Alas de Oro - NV 0532-IF22-E BB H 2 08:40:56.10 1686.627 00:00:20 Yes
61 Bryan Maier - PA 0637-AU22-MAIE BB H 1 08:40:56.61 1686.315 00:00:20 Yes
62 OscarSandor - FL 2006-AU22-HRPC BC C 2 08:40:56.62 1686.309 00:00:20 Yes
63 Perez Rubio Loft - TN 11420-AU22-NASH BBWF H 1 08:40:56.63 1686.302 00:00:20 Yes
64 99 Problems - FL 0026-AU22-ARRO BC C 2 08:40:57.13 1685.997 00:00:21 Yes
65 EL ANIMAL - LA NEGRA - FL 0043-AU22-ANIM BB H 1 08:40:57.57 1685.728 00:00:21 Yes
66 Macken-Vracic - MN 0450-AU22-MACK BB H 1 08:40:57.67 1685.667 00:00:22 Yes
67 Evolution Roly Loft - FL 7698-AU22-AA BB H 2 08:40:57.84 1685.563 00:00:22 Yes
68 Rqk Loft - FL 0006-AU22-ANIM BC H 1 08:40:58.19 1685.349 00:00:22 Yes
69 Pleasant Task Farm - PA 0033-AU22-PTF BC C 1 08:40:58.20 1685.343 00:00:22 Yes
70 Che/Twisted - MI 0537-AU22-TWIS BB H 1 08:40:58.22 1685.330 00:00:22 Yes
71 Chachi Loft - FL 8665-AU22-AA BB H 1 08:40:58.50 1685.159 00:00:22 Yes
72 SORIANO FAMILY LOFT - FL 12712-AU22-AA BBWF H 1 08:40:58.72 1685.025 00:00:23 Yes
73 11 Pluma Darwin Loft - FL 0038-AU22-DAEW 38232au17arpu=220au15napl BB H 1 08:40:59.06 1684.817 00:00:23 Yes
74 Ace Imperial Loft - NY 11373-AU22-JEDD BB H 1 08:40:59.07 1684.811 00:00:23 Yes
75 A P C Loft - TX 22002-AU22-APC BB H 2 08:40:59.30 1684.671 00:00:23 Yes
76 Mely’s Loft - TX 0706-AU22-BATI SIL H 1 08:40:59.58 1684.500 00:00:23 Yes
77 Rambo & Barreto - FL 42218-AU22-ARPU BB C 1 08:40:59.59 1684.494 00:00:23 Yes
78 Valenzuela Brothers - CA 0372-AU22-ADRI BC H 1 08:41:00.11 1684.176 00:00:24 Yes
79 Javier Gonzalez Loft - FL 38802-AU22-ARPU BB C 1 08:41:00.12 1684.170 00:00:24 Yes
80 Wizard Loft - FL 2008-AU22-MAGI BC H 1 08:41:00.13 1684.164 00:00:24 Yes
81 Amer Loft - GA 0149-IF22-AFL BBWF H 1 08:41:00.71 1683.810 00:00:25 Yes
82 Los Tiburones De Colon - FL 34695-AU22-AA BB C 1 08:41:00.72 1683.804 00:00:25 Yes
83 Kelly Ward - IN 0058-AU22-FAMI BBWF H 2 08:41:00.74 1683.792 00:00:25 Yes
84 Pety Loft - FL 0023-AU22-PETY BB C 1 08:41:00.75 1683.786 00:00:25 Yes
85 Aaron Loft - FL 4394-AU22-AA BB H 1 08:41:00.88 1683.707 00:00:25 Yes
86 JuliettaFamilyLoft - FL 0029-AU22-JUL BB H 1 08:41:01.54 1683.304 00:00:25 Yes
87 Q-Ba Family Loft Bgr Olr - TX 22082-AU22-SAIN G-399 x MGF BBSP C 1 08:41:01.55 1683.298 00:00:25 Yes
88 Omego Loft - PR 0012-AU22-OMEG BB H 1 08:41:01.56 1683.292 00:00:25 Yes
89 Aaron Loft - FL 4397-AU22-AA BC H 2 08:41:01.67 1683.225 00:00:26 Yes
90 Zhuang Yx - FL 22038-AU22-YXZ BBWF C 1 08:41:01.68 1683.219 00:00:26 Yes
91 Anunaki - FL 2714-AU22-GHC BC H 2 08:41:01.70 1683.207 00:00:26 Yes
92 Hanely Loft - FL 1274-AU22-THP BCSP C 2 08:41:02.16 1682.926 00:00:26 Yes
93 Yla Loft - FL 19341-AU22-ARPU BB H 1 08:41:02.17 1682.920 00:00:26 Yes
94 Macken-Vracic - MN 0103-AU22-VFL BBWF C 2 08:41:02.28 1682.853 00:00:26 Yes
95 90 Mile - FL 0509-AU22-ORL BB H 1 08:41:02.29 1682.847 00:00:26 Yes
96 11 Pluma Darwin Loft - FL 0066-AU22-DAEW 47627au16arpu=222au20napl BB H 2 08:41:02.30 1682.841 00:00:26 Yes
97 Erp-Duviel Team - GA 2701-AU22-NEA CHOC C 2 08:41:02.85 1682.506 00:00:27 Yes
98 99 Problems - FL 0011-AU22-ARRO BBWF H 3 08:41:03.31 1682.226 00:00:27 Yes
99 EL ANIMAL - LA NEGRA - FL 0063-AU22-ANIM BC C 2 08:41:03.33 1682.214 00:00:27 Yes
100 Greek Connection - SC 0110-AU22-GREE BCWF H 1 08:41:03.34 1682.208 00:00:27 Yes

There are 1111 bird records

Note: These Race Results are unofficial and subject to change until verified by the Race Committee and declared final.

 

UNTIL FUTHER NOTICE

Ship Birds to:

California Classic attn: John

P.O Box 5861 Yuma, AZ 85366

cell 619-454-7696


windy
Click for Forecast for 32825 from weatherUSA